Weather observations for the past three days for
Tampa, Peter O Knight Airport
Imperial (Metric)
Date Time (edt) Wind (mph) Vis. (mi.) Weather Sky Cond. Temperature (ºF) Relative Humidity Wind Chill (°F) Heat Index (°F) Pressure Precipitation (in)
Air Dwpt 6 hour altimeter (in) sea level (mb) 1 hr 3 hr 6 hr
Max. Min.
12 13:35 E 3 10.00 Light Rain SCT045 SCT075 OVC100 82.4 71.6 70% 87 30.09 0.0
12 13:15 E 7 10.00 Light Rain SCT036 BKN045 OVC100 82.4 73.4 74% 88 30.1 0.0
12 12:55 NE 12 G 17 10.00 Overcast BKN035 BKN043 OVC100 84.2 71.6 66% 90 30.1 0.0
12 12:35 SW 7 7.00 Rain SCT043 OVC100 89.6 73.4 59% 98 30.09 0.0
12 12:15 SW 5 10.00 Rain SCT050 OVC100 91.4 71.6 52% 99 30.09 0.0
12 11:55 S 6 10.00 Rain SCT050 BKN100 BKN120 89.6 71.6 55% 96 30.09 0.0
12 11:35 SW 6 10.00 Mostly Cloudy BKN100 89.6 71.6 55% 96 30.09 0.0
12 11:15 Calm 10.00 Rain SCT036 SCT100 SCT120 89.6 71.6 55% 96 30.09 0.0
12 10:55 Calm 7.00 Mostly Cloudy SCT038 SCT044 BKN110 87.8 71.6 59% 94 30.08 0.0
12 10:35 Calm 7.00 Partly Cloudy SCT110 87.8 73.4 62% 96 30.08 0.0
12 10:15 Calm 7.00 Fair CLR 87.8 73.4 62% 96 30.07 0.0
12 09:55 Calm 7.00 Fair CLR 86 73.4 66% 93 30.07 0.0
12 09:35 Calm 7.00 Fair CLR 84.2 73.4 70% 91 30.06 0.0
12 09:15 Calm 7.00 Fair CLR 82.4 73.4 74% 88 30.06 0.0
12 08:55 Calm 7.00 Fair CLR 82.4 73.4 74% 88 30.06 0.0
12 08:35 Calm 7.00 Fair CLR 82.4 73.4 74% 88 30.05 0.0
12 08:15 Calm 7.00 Fair CLR 82.4 73.4 74% 88 30.04 0.0
12 07:55 Calm 7.00 Partly Cloudy SCT030 SCT120 80.6 73.4 79% 85 30.04 0.0
12 07:35 Calm 7.00 Rain SCT030 BKN110 80.6 71.6 74% 85 30.04 0.0
12 07:15 Calm 10.00 Mostly Cloudy BKN110 80.6 71.6 74% 85 30.03 0.0
12 06:55 Calm 10.00 Mostly Cloudy BKN110 80.6 71.6 74% 85 30.03 0.0
12 06:35 Calm 10.00 Partly Cloudy SCT110 80.6 71.6 74% 85 30.02 0.0
12 06:15 Calm 10.00 Partly Cloudy SCT120 80.6 71.6 74% 85 30.02 0.0
12 05:55 Calm 10.00 Partly Cloudy SCT120 80.6 71.6 74% 85 30.02 0.0
12 05:35 Calm 10.00 Fair CLR 78.8 73.4 84% 82 30.01 0.0
12 05:15 Calm 7.00 Fair CLR 78.8 73.4 84% 82 30.01 0.0
12 04:55 Calm 10.00 Fair CLR 78.8 71.6 79% 82 30.01 0.0
12 04:35 Calm 7.00 Partly Cloudy SCT050 SCT080 SCT110 80.6 71.6 74% 85 30.01 0.0
12 04:15 Calm 10.00 Mostly Cloudy BKN050 BKN080 BKN110 80.6 71.6 74% 85 30.01 0.0
12 03:55 Calm 10.00 Mostly Cloudy SCT050 BKN110 78.8 71.6 79% 82 30.01 0.0
12 03:35 Calm 10.00 Partly Cloudy SCT050 SCT110 80.6 71.6 74% 85 30 0.0
12 03:15 Calm 10.00 Partly Cloudy SCT120 80.6 71.6 74% 85 30 0.0
12 02:55 Calm 10.00 Partly Cloudy SCT120 82.4 71.6 70% 87 30 0.0
12 02:35 Calm 10.00 Partly Cloudy SCT110 82.4 71.6 70% 87 30 0.0
12 02:15 Calm 10.00 Fair CLR 82.4 71.6 70% 87 30.01 0.0
12 01:55 Calm 10.00 Fair CLR 82.4 71.6 70% 87 30.02 0.0
12 01:35 Calm 10.00 Partly Cloudy SCT034 SCT040 82.4 71.6 70% 87 30.02 0.0
12 01:15 Calm 10.00 Partly Cloudy SCT036 82.4 71.6 70% 87 30.03 0.0
12 00:55 Calm 10.00 Partly Cloudy SCT036 82.4 71.6 70% 87 30.03 0.0
12 00:35 Calm 10.00 Fair CLR 82.4 71.6 70% 87 30.03 0.0
12 00:15 Calm 10.00 Fair CLR 82.4 73.4 74% 88 30.02 0.0
11 23:55 Calm 10.00 Fair CLR 82.4 73.4 74% 88 30.01 0.0
11 23:35 Calm 10.00 Mostly Cloudy SCT029 BKN036 BKN042 84.2 73.4 70% 91 30.01 0.0
11 23:15 Calm 7.00 Mostly Cloudy SCT029 BKN038 84.2 73.4 70% 91 30.01 0.0
11 22:55 NW 5 10.00 Mostly Cloudy BKN029 BKN036 BKN045 84.2 71.6 66% 90 30 0.0
11 22:35 NW 5 7.00 Partly Cloudy SCT031 SCT040 84.2 73.4 70% 91 30 0.0
11 22:15 Calm 10.00 Partly Cloudy SCT028 84.2 73.4 70% 91 30 0.0
11 21:55 NW 5 10.00 Partly Cloudy SCT028 SCT034 86 73.4 66% 93 30 0.0
11 21:35 W 3 10.00 Mostly Cloudy SCT030 BKN036 86 73.4 66% 93 30 0.0
11 21:15 W 6 7.00 Partly Cloudy SCT028 SCT036 86 73.4 66% 93 30 0.0
11 20:55 W 3 10.00 Partly Cloudy SCT024 SCT028 SCT120 86 73.4 66% 93 29.99 0.0
11 20:35 NW 5 10.00 Fair CLR 86 73.4 66% 93 29.98 0.0
11 20:15 NW 3 10.00 Fair CLR 86 73.4 66% 93 29.98 0.0
11 19:55 W 6 7.00 Partly Cloudy SCT110 86 73.4 66% 93 29.98 0.0
11 19:35 W 5 10.00 Fair CLR 86 73.4 66% 93 29.98 0.0
11 19:15 NW 5 7.00 Partly Cloudy SCT110 86 73.4 66% 93 29.97 0.0
11 18:55 NW 8 7.00 Partly Cloudy SCT100 SCT120 86 73.4 66% 93 29.97 0.0
11 18:35 W 7 10.00 Fair CLR 86 73.4 66% 93 29.97 0.0
11 18:15 W 7 7.00 Rain SCT025 SCT110 86 73.4 66% 93 29.97 0.0
11 17:55 W 6 7.00 Partly Cloudy SCT025 SCT034 SCT120 87.8 73.4 62% 96 29.98 0.0
11 17:35 Calm 7.00 Partly Cloudy SCT025 SCT120 87.8 73.4 62% 96 29.98 0.0
11 17:15 W 5 7.00 Rain SCT025 87.8 73.4 62% 96 29.98 0.0
11 16:55 W 8 10.00 Rain CLR 87.8 73.4 62% 96 29.98 0.0
11 16:35 W 5 7.00 Rain SCT031 SCT120 87.8 73.4 62% 96 29.98 0.0
11 16:15 W 8 7.00 Partly Cloudy SCT031 SCT120 87.8 73.4 62% 96 29.99 0.0
11 15:55 W 5 7.00 Fair CLR 87.8 73.4 62% 96 29.99 0.0
11 15:35 W 7 7.00 Partly Cloudy SCT026 SCT032 87.8 73.4 62% 96 30 0.0
11 15:15 W 6 10.00 Partly Cloudy SCT035 87.8 75.2 66% 98 30 0.0
11 14:55 W 3 10.00 Partly Cloudy SCT019 SCT035 86 75.2 70% 95 30.01 0.0
11 14:35 W 3 10.00 Partly Cloudy SCT017 SCT100 SCT120 86 75.2 70% 95 30.01 0.0
11 14:15 W 5 10.00 Fair CLR 84.2 75.2 74% 92 30 0.0
11 13:55 W 6 10.00 Fair CLR 86 75.2 70% 95 30 0.0
11 13:35 W 7 10.00 Fair CLR 86 75.2 70% 95 30 0.0
11 12:55 SW 3 10.00 Fair CLR 82.4 75.2 79% 89 30.01 0.0
11 12:35 Calm 10.00 Light Drizzle SCT045 SCT055 SCT085 82.4 75.2 79% 89 30.02 0.0
11 12:15 Calm 10.00 Light Rain SCT034 BKN070 OVC090 80.6 73.4 79% 85 30.03 0.0
11 11:55 Calm 10.00 Light Rain SCT075 OVC090 78.8 73.4 84% 82 30.03 0.0 0.01
11 11:35 Calm 10.00 Light Rain SCT047 SCT070 OVC100 78.8 73.4 84% 82 30.03 0.0 0.01
11 11:15 Calm 7.00 Light Rain SCT031 BKN050 OVC090 78.8 73.4 84% 82 30.04 0.0 0.01
11 10:55 N 3 5.00 Rain SCT028 BKN036 OVC100 77 71.6 83% 78 30.04 0.0 0.08
11 10:35 NE 5 7.00 Light Rain OVC110 77 73.4 89% 78 30.04 0.0 0.05
11 10:15 N 5 10.00 Rain SCT024 BKN085 OVC110 77 71.6 83% 78 30.04 0.0 0.02
11 09:55 NE 8 10.00 Light Rain SCT030 SCT060 OVC110 77 71.6 83% 78 30.03 0.0
11 09:35 NE 7 10.00 Light Rain SCT050 BKN075 OVC100 77 71.6 83% 78 30.03 0.0
11 09:15 N 7 10.00 Light Rain SCT032 BKN049 OVC110 78.8 71.6 79% 82 30.02 0.0
11 08:55 NE 8 7.00 Partly Cloudy SCT030 SCT035 SCT043 80.6 71.6 74% 85 30.02 0.0
11 08:35 N 3 7.00 Fair CLR 84.2 73.4 70% 91 30.01 0.0
11 08:15 NW 3 7.00 Fair CLR 86 71.6 62% 92 30.01 0.0
11 07:55 NW 3 7.00 Fair CLR 86 71.6 62% 92 30 0.0
11 07:35 Calm 7.00 Fair CLR 84.2 71.6 66% 90 29.99 0.0
11 07:15 W 6 7.00 Fair CLR 84.2 71.6 66% 90 29.99 0.0
11 06:55 W 3 7.00 Fair CLR 84.2 71.6 66% 90 29.98 0.0
11 06:35 W 5 10.00 Fair CLR 84.2 71.6 66% 90 29.97 0.0
11 06:15 W 6 10.00 Fair CLR 84.2 71.6 66% 90 29.97 0.0
11 05:55 W 6 10.00 Fair CLR 84.2 71.6 66% 90 29.97 0.0
11 05:35 W 5 10.00 Fair CLR 84.2 71.6 66% 90 29.97 0.0
11 05:15 W 6 10.00 Fair CLR 84.2 71.6 66% 90 29.97 0.0
11 04:55 W 5 10.00 Fair CLR 84.2 71.6 66% 90 29.96 0.0
11 04:35 W 5 7.00 Fair CLR 84.2 71.6 66% 90 29.97 0.0
11 04:15 W 3 10.00 Fair CLR 84.2 71.6 66% 90 29.97 0.0
11 03:55 W 5 10.00 Fair CLR 84.2 73.4 70% 91 29.96 0.0
11 03:35 W 3 7.00 Fair CLR 84.2 71.6 66% 90 29.96 0.0
11 03:15 W 3 10.00 Fair CLR 84.2 71.6 66% 90 29.96 0.0
11 02:35 W 3 10.00 Fair CLR 84.2 71.6 66% 90 29.97 0.0
11 02:15 W 3 7.00 Fair CLR 84.2 71.6 66% 90 29.98 0.0
11 01:35 W 3 10.00 Fair CLR 84.2 71.6 66% 90 29.98 0.0
11 01:15 Calm 7.00 Partly Cloudy SCT110 84.2 71.6 66% 90 29.98 0.0
11 00:55 W 3 10.00 Partly Cloudy SCT110 84.2 71.6 66% 90 29.99 0.0
11 00:35 Calm 10.00 Partly Cloudy SCT110 84.2 71.6 66% 90 29.99 0.0
11 00:15 Calm 10.00 Mostly Cloudy BKN110 84.2 71.6 66% 90 29.99 0.0
10 23:55 Calm 10.00 Mostly Cloudy BKN110 84.2 69.8 62% 88 29.99 0.0
10 23:35 Calm 10.00 Partly Cloudy SCT110 86 71.6 62% 92 30 0.0
10 23:15 Calm 10.00 Partly Cloudy SCT110 86 71.6 62% 92 29.99 0.0
10 22:55 Calm 10.00 Mostly Cloudy BKN110 86 71.6 62% 92 30 0.0
10 22:35 Calm 10.00 Mostly Cloudy BKN110 86 71.6 62% 92 30 0.0
10 22:15 Calm 7.00 Mostly Cloudy BKN110 86 71.6 62% 92 30 0.0
10 21:55 Calm 10.00 Partly Cloudy SCT110 86 71.6 62% 92 30 0.0
10 21:35 Calm 10.00 Partly Cloudy SCT120 86 71.6 62% 92 30 0.0
10 21:15 N 3 10.00 Fair CLR 86 71.6 62% 92 30 0.0
10 20:55 N 3 10.00 Fair CLR 86 71.6 62% 92 30.01 0.0
10 20:35 N 3 10.00 Fair CLR 86 71.6 62% 92 30.01 0.0
10 20:15 NW 3 7.00 Fair CLR 86 69.8 59% 91 30 0.0
10 19:55 NW 3 7.00 Fair CLR 87.8 69.8 55% 93 29.99 0.0
10 19:35 NW 6 10.00 Fair CLR 87.8 68 52% 91 30 0.0
10 19:15 NW 6 7.00 Fair CLR 87.8 68 52% 91 30 0.0
10 18:55 NW 3 7.00 Fair CLR 87.8 71.6 59% 94 29.99 0.0
10 18:35 W 6 7.00 Fair CLR 87.8 69.8 55% 93 29.99 0.0
10 18:15 NW 6 7.00 Fair CLR 89.6 68 49% 93 29.99 0.0
10 17:55 W 7 7.00 Fair CLR 89.6 71.6 55% 96 29.99 0.0
10 17:35 Calm 7.00 Fair CLR 89.6 69.8 52% 95 29.99 0.0
10 17:15 NW 6 7.00 Fair CLR 89.6 68 49% 93 29.99 0.0
10 16:55 W 7 7.00 Fair CLR 89.6 68 49% 93 29.99 0.0
10 16:35 W 7 10.00 Fair CLR 89.6 69.8 52% 95 29.99 0.0
10 16:15 W 7 10.00 Partly Cloudy SCT100 91.4 69.8 49% 97 29.99 0.0
10 15:55 NW 8 7.00 Partly Cloudy SCT110 91.4 68 46% 96 29.99 0.0
10 15:35 W 9 10.00 Fair CLR 93.2 68 44% 98 30 0.0
10 15:15 NW 8 7.00 Fair CLR 91.4 68 46% 96 30 0.0
10 14:55 NW 7 7.00 Fair CLR 93.2 68 44% 98 30 0.0
10 14:35 NW 6 7.00 Fair CLR 93.2 69.8 47% 99 30.01 0.0
10 14:15 NW 6 10.00 Partly Cloudy SCT044 SCT090 SCT110 93.2 69.8 47% 99 30.01 0.0
10 13:55 NW 8 7.00 Mostly Cloudy SCT043 BKN110 93.2 68 44% 98 30.02 0.0
10 13:35 W 6 7.00 Partly Cloudy SCT039 SCT046 SCT110 91.4 69.8 49% 97 30.02 0.0
10 13:15 NW 8 10.00 Fair CLR 91.4 71.6 52% 99 30.02 0.0
10 12:55 NW 7 10.00 Fair CLR 91.4 71.6 52% 99 30.03 0.0
10 12:35 NW 8 5.00 Fair with Haze CLR 91.4 69.8 49% 97 30.03 0.0
10 12:15 W 8 7.00 Partly Cloudy SCT039 91.4 71.6 52% 99 30.04 0.0
10 11:55 W 6 5.00 Partly Cloudy with Haze SCT035 SCT044 89.6 71.6 55% 96 30.04 0.0
10 11:35 NW 5 7.00 Overcast BKN033 OVC041 89.6 73.4 59% 98 30.04 0.0
10 11:15 W 6 7.00 Mostly Cloudy SCT031 BKN040 BKN110 89.6 73.4 59% 98 30.04 0.0
10 10:55 W 5 7.00 Partly Cloudy SCT031 89.6 73.4 59% 98 30.04 0.0
10 10:35 W 6 7.00 Partly Cloudy SCT027 SCT033 89.6 75.2 63% 100 30.04 0.0
10 10:15 S 5 7.00 Partly Cloudy SCT026 SCT034 SCT095 87.8 77 70% 100 30.04 0.0
10 09:55 SW 3 10.00 Fair CLR 86 77 75% 97 30.04 0.0
10 09:35 Calm 10.00 Fair CLR 86 77 75% 97 30.04 0.0
10 09:15 SW 5 10.00 Fair CLR 86 77 75% 97 30.03 0.0
10 08:55 SW 5 10.00 Fair CLR 86 77 75% 97 30.03 0.0
10 08:35 SW 3 10.00 Fair CLR 84.2 77 79% 94 30.03 0.0
10 08:15 SW 3 10.00 Fair CLR 82.4 77 84% 91 30.03 0.0
10 07:55 SW 5 10.00 Fair CLR 82.4 77 84% 91 30.03 0.0
10 07:35 SW 6 10.00 Fair CLR 82.4 75.2 79% 89 30.03 0.0
10 07:15 S 5 10.00 Fair CLR 82.4 75.2 79% 89 30.02 0.0
10 06:55 Calm 10.00 Fair CLR 82.4 75.2 79% 89 30.02 0.0
10 06:35 S 3 10.00 Fair CLR 80.6 75.2 84% 86 30.02 0.0
10 06:15 S 3 10.00 Fair CLR 80.6 77 89% 87 30.01 0.0
10 05:55 S 6 10.00 Fair CLR 80.6 77 89% 87 30.01 0.0
10 05:35 SE 6 10.00 Fair CLR 80.6 77 89% 87 30.01 0.0
10 05:15 S 6 10.00 Fair CLR 82.4 77 84% 91 30 0.0
10 04:55 S 5 10.00 Fair CLR 82.4 77 84% 91 30 0.0
10 04:35 S 5 10.00 Fair CLR 80.6 77 89% 87 30 0.0
10 04:15 S 3 10.00 Fair CLR 80.6 77 89% 87 29.99 0.0
10 03:55 SE 6 10.00 Fair CLR 80.6 77 89% 87 29.99 0.0
10 03:35 S 5 10.00 Fair CLR 80.6 77 89% 87 29.99 0.0
10 03:15 S 5 10.00 Fair CLR 80.6 77 89% 87 30 0.0
10 02:55 SE 5 10.00 Fair CLR 82.4 77 84% 91 30 0.0
10 02:35 SE 7 10.00 Fair CLR 82.4 77 84% 91 30 0.0
10 02:15 SE 6 10.00 Fair CLR 82.4 77 84% 91 30.01 0.0
10 01:55 S 6 10.00 Fair CLR 82.4 77 84% 91 30.01 0.0
10 01:35 S 3 10.00 Fair CLR 82.4 77 84% 91 30.02 0.0
10 01:15 S 3 10.00 Fair CLR 82.4 77 84% 91 30.03 0.0
10 00:55 S 6 10.00 Fair CLR 82.4 77 84% 91 30.04 0.0
10 00:35 Calm 10.00 Partly Cloudy SCT100 80.6 77 89% 87 30.04 0.0
10 00:15 Calm 10.00 Partly Cloudy SCT110 80.6 77 89% 87 30.05 0.0
09 23:55 Calm 10.00 Light Drizzle SCT120 82.4 77 84% 91 30.05 0.0
09 23:35 Calm 10.00 Light Drizzle SCT070 SCT100 SCT120 82.4 77 84% 91 30.05 0.0
09 23:15 Calm 10.00 Mostly Cloudy SCT027 SCT050 BKN120 82.4 77 84% 91 30.06 0.0
09 22:55 Calm 10.00 Mostly Cloudy SCT029 SCT050 BKN090 82.4 77 84% 91 30.05 0.0
09 22:35 Calm 10.00 Partly Cloudy SCT026 82.4 77 84% 91 30.05 0.0
09 22:15 Calm 10.00 Partly Cloudy SCT027 SCT120 82.4 77 84% 91 30.04 0.0
09 21:55 Calm 10.00 Partly Cloudy SCT027 SCT120 82.4 77 84% 91 30.03 0.0
09 21:35 E 3 10.00 Partly Cloudy SCT028 82.4 77 84% 91 30.02 0.0
09 21:15 E 3 10.00 Mostly Cloudy BKN028 BKN120 82.4 77 84% 91 30.02 0.0
09 20:55 Calm 10.00 Mostly Cloudy SCT028 BKN120 82.4 77 84% 91 30.01 0.0
09 20:35 NE 5 10.00 Partly Cloudy SCT120 86 73.4 66% 93 30.01 0.0
09 20:15 Calm 10.00 Partly Cloudy SCT027 SCT034 86 73.4 66% 93 30.01 0.0
09 19:55 Calm 10.00 Partly Cloudy SCT029 SCT034 86 73.4 66% 93 30.01 0.0
09 19:35 Calm 10.00 Fair CLR 86 73.4 66% 93 30 0.0
09 19:15 W 3 10.00 Fair CLR 86 73.4 66% 93 30 0.0
09 18:55 Calm 10.00 Fair CLR 86 73.4 66% 93 30.01 0.0
09 18:35 Calm 10.00 Fair CLR 87.8 73.4 62% 96 30.01 0.0
09 18:15 Calm 10.00 Fair CLR 87.8 73.4 62% 96 30.02 0.0
09 17:55 Calm 10.00 Fair CLR 87.8 73.4 62% 96 30.02 0.0
09 17:35 Calm 10.00 Fair CLR 87.8 73.4 62% 96 30.02 0.0
09 17:15 W 3 10.00 Fair CLR 87.8 71.6 59% 94 30.01 0.0
09 16:55 W 5 10.00 Fair CLR 87.8 71.6 59% 94 30.01 0.0
09 16:35 W 3 10.00 Fair CLR 87.8 73.4 62% 96 30.01 0.0
09 16:15 W 5 10.00 Fair CLR 87.8 73.4 62% 96 30.01 0.0
09 15:55 W 3 10.00 Fair CLR 87.8 73.4 62% 96 30.02 0.0
09 15:35 NW 3 10.00 Fair CLR 87.8 73.4 62% 96 30.02 0.0
09 15:15 W 5 10.00 Partly Cloudy SCT034 SCT041 87.8 71.6 59% 94 30.03 0.0
09 14:55 NW 7 10.00 Partly Cloudy SCT032 SCT040 89.6 73.4 59% 98 30.04 0.0
09 14:35 NW 8 10.00 Partly Cloudy SCT032 89.6 73.4 59% 98 30.05 0.0
09 14:15 W 6 10.00 Partly Cloudy SCT032 89.6 73.4 59% 98 30.05 0.0
09 13:55 W 8 10.00 Partly Cloudy SCT032 89.6 73.4 59% 98 30.06 0.0
Date Time (edt) Wind (mph) Vis. (mi.) Weather Sky Cond. Air Dwpt Max. Min. Relative Humidity Wind Chill (°F) Heat Index (°F) altimeter (in) sea level (mb) 1 hr 3 hr 6 hr
6 hour
Temperature (ºF) Pressure Precipitation (in)